Weather in Dmytrivka

Ukraine / Zaporizhia Region     46°45′50″N   35°49′43″E
temp.,
°C
wind,
m/s
gust,
m/s
humid.,
%
clouds,
%
prec.,
mm/h
press.,
hPa
HPBL,
m
4 august, wed
wed400:00+20nw34795 0.0 1014106
03:00+20nnw377950 0.0 1015161
06:00+20n3568100 0.0 1015118
09:00+26nne33450 0.0 1016467
12:00+30n43340 0.0 10161938
15:00+30nnw54317 0.0 10162413
18:00+29nnw44315 0.0 10162069
21:00+24nw35467 0.0 101666
5 august, thu
thu500:00+23ne335069 0.0 101740
03:00+22ene33485 0.0 101634
06:00+21e335416 0.0 101650
09:00+27e4537100 0.0 1016482
12:00+30ese433131 0.0 10151731
15:00+31sse432950 0.0 10141661
18:00+30se223043 0.0 1012858
21:00+26n22391 0.0 101211
6 august, fri
fri600:00+23ene34420 0.0 101154
03:00+23ne33410 0.0 101040
06:00+22e37600 0.0 1009134
09:00+29ese78465 0.0 1008608
12:00+32ese674121 0.0 1007760
15:00+35ese6925100 0.0 10051883
18:00+32se4736100 0.3 1004386
21:00+27n225097 1.8 100313
7 august, sat
sat700:00+26n225649 0.1 100227
03:00+24wnw226186 0.1 100216
06:00+24e11610 0.1 100211
09:00+29ese114711 0.2 1002393
12:00+33sse534070 0.0 10031421
15:00+32sse5447100 0.0 10041082
18:00+31se5649100 0.0 1004660
21:00+24e496131 0.6 1006223
8 august, sun
sun800:00+23ene346290 0.4 100771
03:00+23wsw116159 0.4 100811
06:00+22nw237070 0.1 100954
09:00+27nw4564100 0.1 1010565
12:00+31nw55462 0.0 10111587
15:00+32nw55380 0.0 10112250
18:00+31nnw564111 0.0 10122012
21:00+26nnw335417 0.0 101441